Retour au catalogue

STARLINK-38150

ActifCommunicationsSSO
NORAD 100167·PAYLOAD·🇺🇸 United States

Lancé Jul 25, 2026 depuis Vandenberg Space Force Base

Loading…

Prochains Passages (prochaines 24 heures)

TLE

FraisSource: Space-Track

Époque: Sep 14, 2026, 15:06 UTC

1 A0167U 26171V   26257.62975215 -.00076170  00000-0 -23771-2 0  9995
2 A0167  97.2841 290.2663 0001015  70.2451 289.8902 15.33495859  8009

Suivez STARLINK-38150 en temps réel avec AllMySat

Download on the App Store